Regional Weather Roundup
Issued by NWS

Home | Current Version | Previous Version | Graphics & Text | Print | Product List | Glossary Off
Versions: 1 2 3 4 5 6 7 8 9 10 11 12 13 14 15 16 17 18 19 20 21 22 23 24 25 26 27 28 29 30 31 32 33 34 35 36 37 38 39 40 41 42 43 44 45 46 47 48 49 50

000
ASUS45 KBOU 201007
RWRCO

WEATHER ROUNDUP FOR COLORADO
NATIONAL WEATHER SERVICE DENVER/BOULDER CO
300 AM MST SAT DEC 20 2014

NOTE: "FAIR" INDICATES FEW OR NO CLOUDS BELOW 12000 FEET WITH NO
SIGNIFICANT WEATHER AND/OR OBSTRUCTIONS TO VISIBILITY.

COZ001>005-013-030-031-201100-
...NORTHWEST COLORADO...

CITY           SKY/WX    TMP DP  RH WIND       PRES   REMARKS
CRAIG          CLOUDY    23  18  81 CALM      30.17
HAYDEN         CLOUDY    21  16  79 E7        30.16F WCI  13
MEEKER         CLOUDY    20  15  81 NE6       30.17F WCI  12
MOUNT WERNER   NOT AVBL
STEAMBOAT SPGS CLOUDY    17  14  90 CALM      30.17R
WALDEN         PTCLDY    21  14  73 S10       30.09S WCI  10
$$

COZ006>008-011-201100-
...WEST CENTRAL VALLEYS...

CITY           SKY/WX    TMP DP  RH WIND       PRES   REMARKS
GRAND JUNCTION PTCLDY    30  25  81 SE10      30.21S WCI  21
MONTROSE       MOCLDY    25  17  72 E3        30.22F
EAGLE          MOCLDY    18  16  93 CALM      30.24R
RIFLE          MOCLDY    27  20  75 CALM      30.23R
DELTA          MOCLDY    27  22  81 CALM      30.23S
NUCLA          MOCLDY    25  21  86 CALM      30.24S
$$

COZ017>023-064>068-201100-
...SOUTHWEST COLORADO...

CITY           SKY/WX    TMP DP  RH WIND       PRES   REMARKS
DURANGO        CLOUDY    21  19  92 E3        30.17F
CORTEZ         CLEAR     23  19  85 NE5       30.19S WCI  17
PAGOSA SPRINGS CLOUDY    17  16  97 CALM      30.19R
TELLURIDE      MOCLDY    17  12  82 SE7       30.18F WCI   7
WOLF CREEK PAS PTCLDY    21   3  45 MISG      30.15S
$$

COZ009-010-012-014-032>034-037-058>063-201100-
...CENTRAL COLORADO...

CITY           SKY/WX    TMP DP  RH WIND       PRES   REMARKS
ASPEN          MOCLDY    13   8  81 NW6       30.15F WCI   4
BUENA VISTA    MOCLDY    13   6  73 CALM      30.14R
COPPER MTN     CLOUDY    19  12  73 W15G21    30.10F WCI   5
BERTHOUD PASS  CLOUDY    12   7  79 MISG      30.05F
COTTONWOOD PAS MOCLDY    27   9  46 N3        30.11S
GUNNISON       PTCLDY     7   1  78 NW5       30.25F WCI  -2
KREMMLING      CLOUDY    12   9  85 CALM      30.20S
LEADVILLE      MOCLDY    13   6  74 CALM      30.11S
MONARCH PASS     N/A     10   5  79 MISG      30.23R
SALIDA         MOCLDY    24  10  53 N10       30.21R WCI  14
SUNLIGHT       PTCLDY   N/A N/A N/A CALM      30.15F
WILKERSON PASS PTCLDY    19  10  68 NW8G20    30.12R WCI   9
$$

COZ069>075-201100-
...SAN LUIS VALLEY/SANGRE DE CRISTO MOUNTAINS...

CITY           SKY/WX    TMP DP  RH WIND       PRES   REMARKS
ALAMOSA        MOCLDY     6   2  83 NW6       30.17R WCI  -4
LA VETA PASS   PTCLDY    14  10  85 MISG      30.08S
SAGUACHE       PTCLDY    19   9  63 NW14      30.17R WCI   6
$$

COZ035-036-038>040-201100-
...NORTHERN COLORADO FRONT RANGE...

CITY           SKY/WX    TMP DP  RH WIND       PRES   REMARKS
DENVER INTL AP PTCLDY    31  16  54 SW10      29.99S WCI  22
DMNS CITY PARK   N/A     31  15  52 S6G13     30.00S WCI  25
AURORA         PTCLDY    30  15  55 S10       30.00S WCI  21
FRONT RANGE AP CLEAR     28  21  74 S7        30.00S WCI  21
ERIE MUNI ARPT   N/A     20  16  84 CALM      29.99S
BOULDER MUN AP CLEAR     27  18  69 N3        29.99S
CENTENNIAL     PTCLDY    30  16  56 SW8       30.00S WCI  22
BROOMFIELD     CLEAR     32  18  55 W7        29.99S WCI  26
FORT COLLINS   CLEAR     25  16  68 CALM      30.00S
LONGMONT       CLEAR     22  17  81 NW3       30.01F
$$

COZ041-046-047-076>085-087-088-201100-
...PIKES PEAK/PALMER DIVIDE AND SOUTHERN FOOTHILLS...

CITY           SKY/WX    TMP DP  RH WIND       PRES   REMARKS
COLO. SPRINGS  CLEAR     25  17  72 N6        30.03S WCI  18
A. F. ACADEMY  PTCLDY    19  14  80 N10       30.03R WCI   7
ELLICOTT       NOT AVBL
FALCON         CLEAR     26  16  64 NW8       30.03S WCI  18
FORT CARSON    CLEAR     24  16  71 NW10      30.02R WCI  13
LIMON          CLEAR     16  14  92 NW5       30.02F WCI   9
MONUMENT HILL  PTCLDY    27  14  59 SW10      30.01S WCI  17
TRINIDAD       PTCLDY    27  15  61 W12       30.04S WCI  17
$$

COZ042>045-048>051-090-091-201100-
...NORTHEAST COLORADO...

CITY           SKY/WX    TMP DP  RH WIND       PRES   REMARKS
GREELEY ARPT   CLEAR     16   7  67 N7        29.99F WCI   6
AKRON          PTCLDY    28  19  69 W16       29.99S WCI  16
BURLINGTON     PTCLDY    28  24  85 W8        30.02F WCI  20
WRAY           NOT AVBL
STERLING       PTCLDY    14  10  85 SW5       30.00F WCI   6
HOLYOKE        PTCLDY    21  18  86 W5        30.01S WCI  15
FORT MORGAN    PTCLDY    21  17  81 W8        30.00F WCI  12
$$

COZ086-089-092>099-201100-
...SOUTHEAST COLORADO...

CITY           SKY/WX    TMP DP  RH WIND       PRES   REMARKS
PUEBLO         CLEAR     19  15  84 CALM      30.03S
LA JUNTA       PTCLDY    24  21  88 SW10      30.03F WCI  14
LAMAR          CLOUDY    24  22  91 CALM      30.03R
SPRINGFIELD      N/A     28  23  81 SW6       30.02S WCI  22
$$



USA.gov is the U.S. government's official web portal to all federal, state and local government web resources and services.